sat.trackr.live / text

‹ back to catalog

STARLINK-34913

NORAD 65369 · 2025-190U

PAYLOAD ACTIVE UNKNOWN

§ Identity

Operator
Country
US
Launch date
2025-08-28
Launch site
AFETR
Launch vehicle
Mass (kg)
RCS (m²)

Purposes: comms

External: N2YO · Heavens-Above · Gunter

§ Orbital elements

Epoch: 2026-09-20T12:51:03.833856Z

Period
93.85 min
Inclination
53.1617°
Eccentricity
0.0002540
Mean motion
15.34397722 rev/d
Perigee alt
461.0 km
Apogee alt
464.4 km
Semi-major
6,840.8 km
B*
8.5571e-4
RAAN
339.8283°
Arg perigee
30.2833°
Mean anomaly
329.8316°
Rev number
5,963

§ Raw data

STARLINK-349131 65369U 25190U   26263.53546104  .00028645  00000+0  85571-3 0  99962 65369  53.1617 339.8283 0002540  30.2833 329.8316 15.34397722 59638

JSON: /api/v1/satellites/65369 · /tle

For live sub-satellite position, see the globe view (requires WebGL).

§ Visibility from observer

Set your observer location to see the next 7 days of passes ≥ 10°. The values pass through the URL so the page stays shareable.

No JS? Fill the form by hand. The geolocation button needs JavaScript.